Location: *
(37.5724°S, 58.0067°E)
Time: 18:47:43
(UTC+00:00)

Envisat - Pass Details

Date: 27 November 2022
Orbit: 763 x 765 km, 98.2° (Epoch: 29 January)

Event Time Altitude Azimuth Distance (km) Brightness Sun altitude
Rises 00:06:45 0° 354° (N) 3,219 5.9 -6.8°
Reaches altitude 10° 00:09:11 10° 347° (NNW) 2,302 5.1 -6.4°
Maximum altitude 00:13:55 39° 278° (W) 1,148 3.5 -5.6°
Drops below altitude 10° 00:18:42 10° 209° (SSW) 2,330 5.6 -4.8°
Sets 00:21:11 0° 201° (SSW) 3,264 6.4 -4.4°
